This demonstration page uses our WeatherBlox Daily Observations layout. Learn more.

Left ArrowRight Arrow

Hourly Observations for March 4, 2020

Temp ( °F °C ) Dew Point ( °F °C ) Humidity (%) Winds ( mph kmh ) Pressure ( in mb ) Visibility ( mi km ) Precip ( " mm )
12:54 am 00:54 Clear 45 7.2 32 0 61 61 NW 15 24 29.94 1014 10 16.0934 0 0
1:54 am 01:54 Clear 42 5.6 32 0 68 68 WNW 10 17 29.97 1015 10 16.0934 0 0
2:54 am 02:54 Clear 40 4.4 31 -0.6 70 70 WNW 5 7 29.99 1016 10 16.0934 0 0
3:54 am 03:54 Clear 38 3.3 30 -1.1 73 73 WSW 3 6 29.98 1015 10 16.0934 0 0
4:54 am 04:54 Clear 32 0 28 -2.2 85 85 Calm 30 1016 10 16.0934 0 0
5:54 am 05:54 Clear 31 -0.6 26 -3.3 82 82 WSW 3 6 30.02 1017 10 16.0934 0 0
6:54 am 06:54 Clear 35 1.7 28 -2.2 76 76 VRB 3 6 30.04 1017 10 16.0934 0 0
7:54 am 07:54 Sunny 35 1.7 28 -2.2 76 76 N 6 9 30.04 1017 10 16.0934 0 0
8:54 am 08:54 Sunny 45 7.2 31 -0.6 58 58 NNW 6 9 30.03 1017 10 16.0934 0 0
9:54 am 09:54 Sunny 52 11.1 28 -2.2 40 40 N 9 15 30.03 1017 10 16.0934 0 0
10:54 am 10:54 Sunny 56 13.3 25 -3.9 30 30 VRB 3 6 30.02 1017 10 16.0934 0 0
11:54 am 11:54 Sunny 57 13.9 25 -3.9 29 29 VRB 5 7 30.01 1016 10 16.0934 0 0
12:54 pm 12:54 Sunny 62 16.7 14 -10 15 15 W 7 11 29.96 1014 10 16.0934 0 0
1:54 pm 13:54 Sunny 63 17.2 15 -9.4 15 15 SSW 14 22 29.96 1015 10 16.0934 0 0
2:54 pm 14:54 Sunny 64 17.8 19 -7.2 18 18 SSW 14 22 29.94 1014 10 16.0934 0 0
3:54 pm 15:54 Sunny 64 17.8 20 -6.7 18 18 SSW 23 37 29.93 1014 10 16.0934 0 0
4:54 pm 16:54 Sunny 63 17.2 20 -6.7 19 19 SW 24 39 29.93 1014 10 16.0934 0 0
5:54 pm 17:54 Sunny 60 15.6 21 -6.1 22 22 SSW 14 22 29.93 1014 10 16.0934 0 0
6:54 pm 18:54 Clear 54 12.2 22 -5.6 29 29 S 13 20 29.93 1014 10 16.0934 0 0
7:54 pm 19:54 Clear 50 10 22 -5.6 33 33 S 12 19 29.92 1013 10 16.0934 0 0
8:54 pm 20:54 Clear 51 10.6 22 -5.6 32 32 S 17 28 29.91 1013 10 16.0934 0 0
9:54 pm 21:54 Clear 53 11.7 23 -5 31 31 SSW 22 35 29.88 1012 10 16.0934 0 0
10:54 pm 22:54 Clear 51 10.6 23 -5 33 33 SSW 15 24 29.86 1011 10 16.0934 0 0
11:54 pm 23:54 Clear 51 10.6 22 -5.6 32 32 SW 20 31 29.85 1011 10 16.0934 0 0

Powered by AerisWeather